Simultaneous Nadir Overpasses (SNOs) Predictions

Prediction of SNOs between GOES-17 and METOP-C Satellite Orbit:

Table of predicted SNOs for the next 14.0 days since TLE Epoch: 10/31/2020
Index Date Time (GOES-17) GOES-17 Lat,Lon METOP-C Lat,Lon Distance(km) Time Diff (sec)
1 11/01/2020 06:41:50 0.05,-137.21 0.05,-137.27 7.27 80
2 11/03/2020 18:40:05 -0.04,-137.20 -0.14,-136.84 40.89 80
3 11/05/2020 06:59:05 0.04,-137.18 -0.90,-141.43 484.50 80
4 11/06/2020 06:35:47 0.04,-137.17 0.23,-136.44 83.32 80
5 11/07/2020 18:54:40 -0.03,-137.15 0.81,-141.00 438.71 80
6 11/08/2020 18:36:40 -0.03,-137.13 -0.26,-136.00 128.71 80
7 11/10/2020 06:55:41 0.02,-137.10 -0.78,-140.59 397.80 80
8 11/11/2020 06:32:22 0.02,-137.09 0.35,-135.60 169.24 80
9 11/12/2020 18:51:15 -0.02,-137.06 0.69,-140.16 353.91 80
10 11/13/2020 18:33:17 -0.02,-137.04 -0.44,-135.17 212.77 80
